Vorticity
7 9 11 12 10 7 5 7 9 11 11 4 -4 -2 8 12 9 8 4 1 -5 -6 17 27 12 6 7 11 11 5 7 6 2 5 9 10 8 10 13 10 7 8 10 8 4 5 6 6 7 7 7 10 11 7 8 10 7 7 6 10 15 12 8 6 4 3 3 4 5 5 6 5 7 7 7 7 7 8 9 10 12 13 10 9 7 6
3 5 9 11 13 12 8 5 4 7 10 10 3 -5 -1 7 8 8 7 9 3 -7 2 4 5 21 15 3 8 12 13 7 2 2 1 5 15 20 13 8 8 5 8 8 4 7 8 7 8 8 8 10 12 8 6 10 8 5 7 9 12 11 7 6 4 3 3 4 4 5 7 7 7 7 8 7 7 9 10 11 12 12 10 8 7 7
4 3 6 8 10 12 11 8 3 3 5 8 10 6 6 11 9 5 3 6 10 7 2 -3 7 24 21 9 4 7 7 1 8 10 1 5 17 18 8 12 18 5 5 9 3 8 11 7 7 6 7 8 12 11 6 9 10 6 6 9 11 8 5 5 5 5 5 5 6 7 8 8 7 7 7 7 7 9 10 11 12 11 10 8 7 7
9 7 6 5 6 9 11 11 7 4 3 5 8 7 6 9 9 10 8 3 6 7 -2 -2 4 -8 -3 20 14 6 9 4 8 10 6 6 6 3 -0 17 27 1 -3 10 5 7 9 5 6 6 8 8 9 13 9 7 10 9 5 7 11 7 3 4 4 5 7 7 7 9 9 8 7 7 7 6 7 9 10 11 11 10 9 9 9 9
7 8 9 7 5 5 7 10 10 7 4 3 6 8 9 9 6 5 6 4 8 18 7 -7 -2 1 13 32 17 3 9 8 8 8 6 5 7 10 1 9 23 0 -8 7 5 6 9 5 5 4 5 8 9 11 10 8 8 9 7 6 9 8 4 3 4 5 6 7 6 8 9 8 7 6 7 8 8 9 10 11 10 10 10 9 9 8
4 5 6 8 7 5 5 6 8 10 9 5 3 5 8 11 11 3 -3 -4 -0 22 33 6 -15 -4 17 29 20 8 3 2 5 6 7 7 8 14 6 5 15 5 -1 7 7 6 7 4 3 4 5 7 10 12 11 8 7 8 8 6 7 8 5 3 4 5 6 7 7 7 7 7 7 7 8 9 9 9 10 11 10 9 9 8 8 7
1 3 4 6 7 7 5 4 5 6 9 9 6 5 5 6 11 11 4 -6 -17 -11 15 23 7 -10 -22 -23 -10 -3 -6 -0 7 3 4 8 6 7 11 11 8 4 5 8 9 7 5 4 4 7 10 8 9 13 14 10 7 8 8 6 7 7 6 4 4 5 6 7 7 7 6 6 6 6 9 9 8 10 10 10 10 8 7 6 6 6
5 2 2 3 6 8 7 5 6 6 6 9 8 6 6 5 6 11 9 2 -5 -15 -16 -4 13 20 4 -16 -13 -2 -2 2 7 3 3 8 7 3 6 10 6 6 8 6 8 8 4 6 8 7 9 8 8 13 18 15 7 7 8 7 7 7 6 4 4 5 6 7 7 6 6 6 6 5 8 9 8 9 10 10 11 9 7 6 6 6
11 8 4 3 1 4 8 9 6 5 5 6 10 10 5 3 3 7 10 8 8 7 -4 -17 -16 1 14 13 12 14 14 15 10 5 3 4 8 7 6 10 8 8 9 6 6 7 5 5 5 7 8 6 8 12 18 18 11 7 8 8 7 6 7 5 4 5 6 7 7 6 6 6 7 7 7 7 6 7 9 10 10 10 8 7 7 7
9 8 6 5 2 -0 3 7 7 6 7 4 3 8 8 6 3 1 5 7 5 5 6 1 -6 -10 -7 3 15 17 11 8 11 16 11 2 6 11 7 6 7 8 12 11 5 2 7 8 3 6 10 7 9 11 11 17 18 10 7 9 8 6 6 6 5 4 5 8 7 5 6 7 7 8 7 6 5 6 8 9 10 10 9 8 8 8
9 9 8 5 4 3 -0 1 6 5 5 6 4 4 7 9 8 2 -1 4 8 8 6 4 4 4 -1 -9 -2 15 19 10 7 17 18 11 10 8 2 6 11 10 9 7 7 5 5 7 6 6 7 6 8 9 10 18 23 17 9 8 9 8 6 6 6 5 4 6 7 5 5 7 8 8 7 5 5 5 7 9 10 10 9 7 7 7
14 16 17 13 8 7 6 2 3 5 5 5 6 5 5 6 9 10 5 2 3 5 9 10 4 6 9 -0 -12 -8 10 19 7 6 14 7 -2 -4 -0 7 5 3 6 4 5 9 6 5 6 6 5 7 8 7 11 19 23 21 15 8 8 9 7 6 6 6 5 5 6 6 5 7 9 9 7 5 5 6 7 9 9 8 8 7 6 6
12 10 8 13 16 11 9 8 1 -0 6 9 6 3 4 4 4 8 9 6 6 6 8 10 8 5 4 7 5 -10 -5 15 5 -7 2 6 9 16 12 6 0 -4 3 8 6 7 7 6 5 5 8 8 7 6 9 14 17 22 20 13 10 10 9 8 6 5 5 5 5 5 6 7 9 9 7 5 4 5 7 8 8 8 8 7 6 6
20 30 20 11 21 19 10 13 14 4 -0 5 10 5 3 4 4 7 9 5 3 3 4 8 11 11 6 4 8 -3 -12 3 7 1 4 6 11 14 3 5 16 10 3 7 10 6 4 5 4 4 8 6 2 5 9 9 12 18 21 17 12 10 10 10 8 6 6 6 5 5 5 6 8 9 8 5 4 4 5 7 7 7 7 6 5 4
8 28 42 34 37 42 23 5 8 16 12 4 7 11 7 3 2 4 11 20 24 16 5 5 6 5 6 9 12 9 -5 -11 -0 16 23 12 1 -2 -3 4 12 11 8 7 8 8 5 7 7 4 5 4 2 5 7 7 10 15 20 20 15 10 10 11 9 7 6 6 6 5 5 6 7 8 8 7 5 4 4 4 6 6 5 5 3 2
-4 -11 16 34 33 41 48 36 16 8 14 14 12 15 12 6 6 1 -5 0 21 34 25 16 18 15 10 5 2 7 10 5 0 3 5 2 2 4 -1 -5 0 10 11 4 4 10 8 7 7 4 4 5 5 6 7 7 9 12 16 20 19 12 9 10 11 9 7 7 7 5 4 5 6 8 8 8 6 4 4 2 3 4 3 3 1 1
17 -15 -20 2 6 8 28 50 49 24 10 14 20 24 18 6 6 10 6 -7 -12 -1 9 12 18 25 30 32 26 13 7 11 11 3 -5 -2 18 30 17 1 3 11 12 10 13 12 10 8 5 5 5 4 5 6 7 7 6 8 13 18 20 16 10 9 10 11 9 7 7 6 5 4 6 7 8 9 7 5 5 2 1 2 2 1 1 1
16 -3 -14 -9 -4 9 13 14 32 38 18 -1 1 28 46 32 14 8 6 8 6 -2 -1 5 3 8 18 21 30 41 36 23 15 9 1 1 14 28 30 20 3 -3 2 9 11 8 8 9 5 5 5 2 5 7 6 7 5 5 10 15 20 20 14 9 9 10 10 8 7 7 6 5 5 7 7 9 9 7 5 4 2 1 1 1 1 2
10 8 11 1 -19 -8 13 11 16 35 40 13 -22 -13 26 38 36 38 18 -2 3 5 7 11 -3 -4 10 2 -1 28 42 34 33 28 8 -3 -6 -17 -12 5 6 3 5 1 -3 -1 4 10 9 7 6 3 6 6 4 7 7 5 6 11 18 22 18 11 8 9 9 8 8 7 7 6 5 6 7 8 9 8 6 5 3 2 2 1 2 2
9 5 7 10 -6 -24 -22 -6 4 10 35 50 17 -21 -15 -0 7 31 46 33 13 -5 -3 16 12 -3 -1 0 2 9 6 9 33 46 24 7 5 -7 -9 12 19 13 7 1 1 -1 -1 10 11 5 7 8 6 5 5 7 5 3 5 7 12 18 21 17 12 11 10 9 8 7 7 7 6 6 7 8 9 9 7 6 5 4 3 2 3 3
8 8 2 5 14 4 -17 -17 -7 -8 2 34 48 22 -4 -6 -8 -10 9 36 43 18 -11 -6 18 25 12 -1 -1 0 -4 -1 23 49 43 18 14 15 7 11 19 18 9 4 12 14 9 9 3 1 7 9 7 4 4 9 6 1 3 6 9 15 19 21 17 13 12 11 9 8 7 6 6 6 7 7 9 9 8 7 6 5 4 3 4 3
5 5 7 -1 1 9 7 2 5 14 11 -0 22 50 29 3 7 6 -7 0 31 49 25 -10 -13 11 29 26 13 8 5 1 13 47 53 26 17 25 14 1 12 27 19 4 1 6 13 15 10 9 9 7 9 7 3 9 10 3 2 4 7 12 15 19 21 16 12 12 11 9 8 7 6 6 7 7 7 8 8 8 7 6 5 4 4 4
6 2 7 6 2 2 6 7 -0 4 10 -18 -23 20 33 9 4 12 9 -2 2 29 44 29 -0 -19 -8 14 23 28 26 6 0 25 41 27 12 15 18 11 10 15 15 10 6 3 8 14 11 9 9 8 11 7 2 6 7 4 5 5 5 9 12 15 19 19 15 12 11 11 10 8 6 5 6 7 7 7 7 7 7 7 7 6 6 6
12 10 8 6 6 3 -0 6 4 -2 11 11 -4 -5 1 11 14 0 2 11 5 8 22 33 32 5 -23 -17 2 15 22 18 9 11 24 29 14 4 12 15 12 11 11 14 18 17 9 0 -2 3 6 6 9 7 2 2 4 4 5 5 3 5 10 13 14 17 17 13 11 11 11 10 9 7 6 6 7 7 6 6 6 7 8 7 7 8
15 11 12 9 7 9 2 1 6 7 10 16 26 17 -16 -3 30 9 -10 8 9 6 8 11 34 41 5 -15 -5 -1 0 8 8 6 20 30 20 17 23 18 14 18 16 10 7 5 0 -4 3 12 9 4 7 9 5 1 1 3 4 5 4 2 6 10 12 15 17 16 13 11 10 11 11 9 7 6 7 7 6 6 6 6 8 8 7 8
14 13 15 13 8 11 11 7 6 11 10 -0 13 25 -13 -14 37 25 -10 4 9 6 9 -4 11 46 35 2 -10 -9 6 21 10 -1 16 26 15 17 27 19 10 11 15 17 10 1 3 7 9 10 8 10 10 7 7 6 1 -1 1 2 2 1 3 6 9 11 14 17 16 13 11 10 11 12 11 8 7 7 7 6 6 7 8 8 7 7
9 8 13 16 14 12 7 6 3 0 8 2 3 18 -6 -15 26 20 -11 2 8 8 18 -1 -11 22 38 18 -8 -25 -16 12 15 -6 -5 11 9 8 19 17 10 13 16 16 13 10 9 8 4 3 6 11 10 4 6 9 4 -1 -2 -2 -1 1 1 2 5 8 10 14 17 18 16 12 10 11 12 11 9 8 7 6 5 7 8 8 7 7
19 11 9 10 16 18 7 4 7 3 7 3 -2 12 9 5 24 15 -6 -3 -5 4 25 10 -9 5 12 13 23 13 -16 -18 -1 -5 -10 5 4 -6 9 18 13 20 27 21 19 21 19 14 12 11 8 7 8 7 6 7 7 2 -2 -0 3 2 0 2 4 5 7 10 14 18 19 16 13 11 11 13 12 9 8 6 5 7 8 8 8 7
38 32 20 13 16 20 13 8 8 8 13 9 1 5 8 19 35 23 2 -7 -15 1 19 2 -7 5 1 -5 9 21 14 3 0 -8 -18 -12 -15 -21 5 28 18 6 5 6 8 9 12 18 16 10 6 5 6 6 4 5 8 4 -0 2 5 3 1 2 4 5 5 6 9 13 17 18 17 14 11 12 14 12 10 8 6 6 7 8 9 8
34 43 38 31 28 24 19 14 6 2 11 15 12 9 6 14 30 27 15 3 -9 -3 4 -8 -7 4 11 12 -5 -19 -3 12 8 2 2 3 1 -3 7 24 23 6 -8 -5 -1 -2 1 9 10 9 9 7 5 6 6 6 6 4 2 4 5 5 4 2 4 7 7 5 6 8 12 17 18 18 15 11 12 14 13 10 7 6 6 7 8 8
17 30 36 35 36 31 25 24 16 3 4 9 6 3 2 7 20 25 18 7 1 2 -2 -10 -5 1 8 22 13 -12 -10 0 -6 -7 4 13 19 19 11 11 19 14 4 6 9 10 10 5 2 10 14 10 4 2 3 5 3 3 5 5 5 4 4 4 4 7 8 6 6 6 8 13 16 18 19 15 13 13 15 14 10 7 7 6 7 9
23 23 23 24 33 39 33 33 31 14 5 10 7 2 0 0 14 30 26 12 7 11 8 -2 -7 1 10 13 10 2 -1 1 -1 -6 -4 3 12 17 12 6 10 10 7 8 9 15 20 12 3 5 10 15 12 4 3 5 4 5 6 5 4 3 4 5 4 7 9 5 5 5 6 10 13 16 19 19 17 14 14 16 13 8 7 6 6 7
22 18 10 11 24 33 33 34 32 20 13 16 12 9 8 1 2 20 28 18 5 6 14 5 -13 -3 19 14 2 6 9 8 12 14 10 4 -2 -2 0 2 5 7 7 5 5 13 20 16 9 6 6 14 17 12 11 11 8 8 4 2 6 5 5 6 5 8 9 6 5 5 4 7 10 12 16 18 18 17 15 16 17 13 9 6 6 6
12 7 1 9 18 22 28 34 31 24 22 18 10 7 12 7 0 9 22 21 10 8 13 1 -16 -1 29 21 -3 -0 13 10 9 17 21 17 8 2 1 2 2 4 7 6 3 6 10 8 8 9 7 6 3 1 2 1 2 7 4 2 7 7 4 4 5 7 7 6 7 6 3 5 7 9 13 15 16 17 15 14 17 18 14 8 6 6
14 8 1 9 19 20 24 27 26 32 37 26 10 5 7 8 1 -0 16 24 15 12 14 -1 -18 -6 24 25 -1 -8 5 4 -1 7 16 19 20 14 6 6 7 4 5 8 6 5 5 4 5 7 8 7 5 5 6 2 1 7 7 2 4 7 6 4 4 7 7 7 9 8 4 3 5 8 11 13 14 15 15 14 15 19 20 14 8 6
12 13 6 2 8 17 26 26 18 26 43 38 22 12 8 11 8 0 13 27 16 8 16 7 -15 -13 16 30 8 -6 5 5 -5 2 9 4 7 12 12 12 13 9 6 7 9 9 6 5 6 5 4 7 6 5 7 7 5 9 11 7 5 8 9 6 5 5 6 6 9 10 6 3 5 7 8 11 14 13 13 13 13 17 21 19 13 8
11 17 15 6 4 8 21 33 23 16 31 38 31 27 16 8 7 1 6 22 20 11 15 13 -6 -15 4 20 2 -9 10 14 -6 -4 8 3 -1 5 11 12 12 11 10 7 8 9 7 8 12 9 5 8 9 5 5 8 8 8 11 10 7 8 11 11 10 8 6 7 8 9 8 5 5 6 7 10 13 12 12 12 11 13 18 21 18 12
21 20 14 6 8 6 8 27 32 19 17 21 25 35 32 17 11 3 -0 14 25 17 11 12 7 -5 -1 13 2 -15 -1 13 2 -2 5 5 7 11 9 9 10 11 11 9 8 9 8 7 11 11 7 8 12 9 6 9 10 7 7 7 6 8 12 12 10 9 9 9 8 9 9 7 5 5 6 8 11 12 11 11 10 10 12 17 19 16
25 25 19 7 7 8 3 15 30 24 15 13 18 29 32 29 25 13 1 11 25 23 11 6 11 7 7 20 16 -9 -12 2 5 8 7 0 8 19 14 7 10 11 11 11 10 9 8 7 9 12 9 7 9 9 6 9 11 6 4 5 4 5 8 4 2 9 13 11 9 8 8 9 7 5 5 7 10 11 11 10 10 9 9 11 14 16
23 27 29 17 6 5 5 9 19 25 21 13 11 18 24 30 33 21 9 13 22 23 15 10 15 10 2 13 18 3 -3 0 -1 3 7 2 7 18 14 9 11 11 10 9 8 8 8 7 8 11 9 6 8 8 6 7 8 4 4 6 3 2 4 2 2 9 12 10 9 8 7 9 9 6 4 6 8 9 10 11 10 9 9 8 9 11
25 29 33 25 10 5 9 9 11 22 29 15 1 8 18 25 30 23 12 16 26 25 14 13 20 11 -4 6 21 11 2 4 3 -1 -2 1 13 19 14 10 9 7 8 9 8 9 9 8 9 10 9 6 6 8 8 5 4 4 4 4 3 3 4 3 3 8 8 7 9 9 7 9 9 6 4 5 6 9 10 11 10 9 9 9 9 10
23 35 38 29 16 5 5 10 9 15 31 27 7 2 7 14 30 30 11 9 26 28 16 14 21 9 -7 2 19 15 5 7 14 10 -7 -19 -13 -3 2 5 4 2 7 10 10 10 10 10 11 9 6 6 5 7 9 5 3 4 3 1 3 6 5 4 5 7 7 8 9 8 7 8 8 6 4 3 5 8 11 12 11 9 9 9 9 10
12 33 39 31 24 12 2 7 9 8 22 31 21 9 1 2 23 35 18 8 22 27 15 12 19 12 2 8 17 14 6 5 9 10 -2 -20 -31 -31 -17 -3 -0 -2 3 8 10 13 12 11 11 9 7 6 5 5 8 6 4 4 3 1 2 3 3 4 5 6 8 12 11 8 8 9 7 5 4 4 3 4 9 14 13 10 9 10 10 10
6 23 33 28 23 18 8 8 9 8 16 23 21 18 10 3 11 24 21 16 25 29 16 10 19 15 3 12 27 20 4 3 7 4 1 0 -4 -7 2 14 13 5 6 8 8 11 12 12 11 10 9 8 6 6 7 7 5 2 1 3 4 3 2 2 3 3 7 14 15 10 8 9 7 3 2 3 3 2 5 12 14 11 11 12 12 12
8 17 29 25 13 11 10 8 8 10 14 14 13 17 20 17 12 13 18 19 25 32 20 4 15 23 3 -0 29 36 9 -4 6 11 4 0 3 5 7 14 16 9 5 6 7 8 10 12 12 12 12 11 9 7 7 7 7 4 2 3 4 2 2 2 3 3 6 13 17 12 7 8 7 4 2 2 2 1 4 11 14 11 11 13 13 13
6 10 22 24 18 16 14 9 7 12 14 12 12 14 19 25 21 13 16 18 20 34 29 -2 -3 26 21 -1 17 46 33 1 -5 11 12 1 -0 -1 -13 -13 4 13 7 4 6 7 7 9 12 14 15 13 11 8 7 8 8 6 5 4 3 3 4 4 4 3 5 13 18 13 8 8 7 3 2 3 3 3 5 10 13 12 11 13 14 14
13 12 15 19 20 19 15 11 11 14 13 12 14 15 16 23 25 19 19 19 14 27 36 9 -9 18 36 18 9 35 50 23 -7 -2 11 8 9 12 -4 -19 -8 8 10 5 4 5 6 7 10 14 15 14 12 10 8 8 8 8 8 8 6 5 5 5 6 6 5 9 14 12 8 8 7 5 5 5 4 6 8 10 12 12 12 13 13 13
15 19 20 20 20 18 17 18 16 15 14 12 13 16 19 21 23 22 22 19 14 22 31 18 -3 2 22 28 18 24 48 42 7 -5 9 9 4 16 24 11 -5 -5 4 9 5 4 7 7 7 11 13 13 13 11 9 9 8 8 9 10 10 10 7 6 8 8 5 5 9 10 8 7 6 6 6 6 6 8 10 11 10 11 12 13 12 12
14 19 20 22 24 19 15 18 19 18 22 22 19 21 24 22 21 26 25 14 11 21 26 16 1 -9 -2 18 21 18 38 49 23 5 16 13 -5 3 28 33 15 -1 1 9 7 5 7 8 7 8 9 11 12 11 10 11 11 11 12 13 12 12 10 8 8 9 7 6 6 7 6 6 7 7 4 4 8 10 10 10 10 10 10 11 10 10
14 17 16 19 25 23 15 12 13 15 20 24 27 30 31 26 21 25 27 15 9 18 23 17 9 -0 -2 13 20 17 32 48 31 12 18 17 2 -2 11 25 26 14 5 8 10 7 5 7 8 9 9 9 10 9 9 9 10 11 13 13 13 12 11 9 9 9 7 4 4 8 7 4 6 7 4 3 9 12 10 9 9 9 10 11 10 9
11 13 14 13 17 25 24 15 11 13 16 18 24 30 33 31 23 19 21 18 11 13 18 17 16 9 3 10 17 17 30 44 33 13 9 11 9 4 3 14 26 19 5 5 10 8 6 7 8 10 11 11 9 8 8 8 8 9 10 10 12 14 14 12 10 9 7 4 3 6 8 8 8 6 3 6 10 11 9 10 10 9 9 10 9 9
Height
5842 5843 5845 5849 5852 5855 5856 5858 5860 5860 5860 5861 5862 5864 5867 5868 5872 5875 5878 5882 5882 5880 5880 5879 5881 5882 5881 5882 5884 5886 5887 5889 5892 5893 5893 5895 5895 5896 5897 5898 5900 5900 5900 5900 5901 5902 5903 5904 5905 5906 5907 5908 5910 5911 5912 5913 5914 5915 5916 5917 5919 5921 5922 5924 5925 5927 5928 5930 5931 5932 5933 5934 5935 5936 5937 5938 5939 5940 5940 5942 5943 5943 5944 5944 5945 5946
5838 5840 5844 5848 5850 5851 5852 5854 5856 5857 5857 5859 5860 5861 5864 5866 5870 5873 5875 5879 5880 5882 5883 5880 5880 5880 5878 5880 5882 5884 5885 5887 5891 5892 5892 5894 5894 5895 5897 5897 5898 5899 5899 5898 5900 5901 5903 5904 5905 5906 5907 5908 5910 5911 5912 5913 5914 5915 5916 5918 5919 5921 5923 5924 5925 5927 5928 5929 5931 5932 5933 5934 5935 5936 5938 5939 5939 5940 5941 5942 5943 5944 5945 5945 5946 5947
5835 5839 5843 5845 5846 5847 5849 5850 5852 5854 5855 5856 5858 5859 5862 5865 5868 5870 5872 5877 5878 5879 5882 5882 5880 5879 5877 5877 5879 5882 5884 5885 5888 5890 5890 5892 5893 5894 5896 5896 5896 5897 5898 5897 5899 5900 5902 5904 5905 5905 5906 5907 5909 5910 5911 5913 5914 5915 5916 5918 5919 5921 5923 5924 5925 5927 5928 5929 5931 5932 5934 5935 5936 5937 5938 5939 5940 5940 5941 5942 5943 5944 5945 5946 5947 5948
5833 5837 5840 5841 5842 5844 5845 5847 5849 5850 5852 5853 5855 5857 5861 5864 5866 5868 5871 5875 5875 5873 5877 5882 5882 5880 5877 5875 5875 5879 5880 5880 5883 5886 5888 5891 5892 5893 5893 5894 5896 5896 5895 5896 5898 5900 5901 5903 5904 5905 5906 5907 5908 5909 5911 5912 5914 5915 5916 5918 5919 5921 5923 5924 5925 5927 5928 5930 5931 5933 5934 5936 5937 5938 5939 5940 5940 5941 5942 5942 5944 5944 5946 5947 5947 5949
5830 5833 5835 5837 5838 5840 5842 5844 5845 5847 5850 5851 5853 5855 5859 5862 5863 5866 5868 5871 5870 5869 5873 5878 5881 5880 5877 5873 5873 5875 5876 5876 5880 5883 5886 5889 5890 5890 5892 5894 5895 5895 5894 5894 5896 5899 5901 5903 5904 5905 5906 5906 5907 5908 5910 5912 5913 5914 5916 5917 5919 5921 5922 5924 5925 5927 5929 5930 5932 5933 5935 5936 5937 5938 5939 5940 5940 5941 5942 5943 5944 5945 5946 5947 5948 5949
5826 5829 5831 5832 5834 5837 5839 5841 5842 5844 5847 5848 5851 5853 5856 5859 5860 5862 5865 5865 5866 5867 5870 5873 5876 5877 5876 5874 5874 5874 5875 5875 5878 5883 5885 5887 5887 5888 5891 5892 5893 5895 5894 5893 5895 5898 5900 5902 5904 5905 5906 5906 5907 5908 5909 5910 5912 5913 5915 5917 5919 5921 5922 5924 5925 5927 5929 5931 5932 5933 5935 5936 5937 5938 5939 5940 5941 5942 5943 5944 5945 5945 5946 5947 5949 5950
5822 5824 5827 5829 5831 5833 5836 5837 5839 5841 5843 5845 5848 5851 5853 5855 5856 5858 5859 5860 5862 5864 5867 5868 5870 5872 5871 5873 5874 5874 5875 5874 5875 5879 5883 5885 5886 5886 5889 5890 5891 5894 5894 5894 5896 5898 5899 5901 5904 5906 5906 5906 5907 5908 5908 5909 5911 5913 5914 5916 5919 5921 5922 5924 5925 5927 5929 5931 5932 5933 5935 5936 5937 5938 5939 5941 5942 5942 5943 5944 5945 5946 5947 5948 5949 5950
5817 5820 5823 5825 5827 5829 5832 5835 5837 5838 5840 5842 5846 5848 5850 5852 5853 5854 5855 5856 5858 5860 5862 5865 5866 5867 5867 5870 5873 5873 5873 5872 5872 5875 5879 5883 5885 5886 5887 5889 5889 5892 5895 5895 5895 5897 5899 5901 5904 5906 5907 5906 5906 5907 5908 5909 5910 5912 5914 5916 5918 5920 5922 5924 5926 5928 5929 5931 5932 5934 5935 5936 5937 5939 5940 5941 5942 5943 5944 5945 5946 5947 5948 5949 5950 5951
5813 5816 5818 5820 5823 5826 5829 5832 5833 5835 5837 5839 5843 5844 5845 5847 5849 5850 5851 5853 5857 5857 5857 5860 5862 5863 5864 5867 5872 5873 5871 5870 5870 5873 5876 5881 5884 5886 5887 5887 5888 5891 5893 5893 5894 5895 5897 5900 5903 5905 5906 5906 5906 5907 5907 5908 5909 5911 5912 5914 5917 5920 5922 5924 5926 5928 5929 5931 5932 5934 5935 5936 5937 5939 5940 5942 5943 5944 5945 5946 5946 5947 5948 5949 5950 5951
5807 5809 5812 5815 5818 5822 5825 5827 5828 5831 5833 5835 5838 5840 5841 5843 5845 5845 5845 5849 5853 5851 5852 5857 5859 5860 5862 5866 5869 5871 5871 5870 5869 5870 5873 5879 5883 5886 5887 5886 5886 5890 5892 5892 5892 5894 5897 5900 5902 5904 5905 5905 5905 5907 5907 5907 5908 5909 5911 5914 5916 5919 5921 5923 5926 5927 5929 5931 5932 5934 5935 5936 5938 5939 5941 5942 5943 5944 5945 5946 5947 5947 5948 5949 5951 5952
5802 5803 5807 5811 5814 5817 5820 5821 5824 5826 5828 5831 5834 5837 5838 5840 5840 5839 5841 5846 5848 5846 5848 5855 5857 5857 5860 5864 5867 5868 5870 5871 5871 5869 5868 5874 5880 5883 5885 5885 5886 5889 5891 5891 5891 5893 5896 5899 5902 5903 5904 5905 5906 5907 5907 5907 5908 5908 5910 5913 5915 5918 5920 5923 5925 5927 5929 5931 5932 5933 5935 5937 5938 5940 5941 5942 5943 5944 5945 5946 5947 5948 5949 5950 5951 5952
5798 5800 5804 5807 5809 5812 5814 5816 5820 5822 5824 5828 5832 5833 5834 5836 5836 5836 5839 5843 5843 5843 5848 5853 5856 5855 5855 5860 5866 5868 5868 5870 5873 5872 5867 5868 5874 5878 5881 5883 5885 5887 5888 5889 5890 5893 5896 5898 5901 5903 5903 5905 5906 5907 5908 5907 5907 5907 5909 5911 5914 5916 5919 5922 5924 5927 5929 5930 5932 5933 5935 5937 5939 5940 5941 5942 5943 5944 5945 5947 5948 5949 5950 5951 5952 5953
5794 5797 5799 5801 5803 5807 5809 5812 5816 5818 5821 5825 5828 5829 5829 5832 5832 5833 5836 5838 5838 5842 5848 5852 5853 5852 5851 5856 5863 5867 5867 5867 5870 5873 5871 5868 5869 5874 5878 5881 5883 5884 5885 5887 5890 5893 5896 5897 5899 5901 5902 5904 5906 5908 5908 5906 5905 5906 5908 5910 5913 5916 5918 5921 5923 5926 5928 5930 5931 5933 5934 5937 5939 5940 5941 5942 5943 5944 5946 5947 5948 5949 5950 5951 5952 5953
5792 5794 5795 5796 5798 5800 5804 5809 5811 5814 5817 5821 5823 5824 5825 5828 5829 5830 5833 5834 5836 5841 5846 5850 5849 5847 5849 5853 5858 5864 5867 5865 5866 5871 5875 5872 5868 5869 5875 5878 5880 5882 5883 5885 5889 5892 5894 5896 5897 5899 5901 5903 5905 5907 5908 5906 5904 5904 5906 5908 5911 5914 5917 5920 5922 5925 5927 5929 5931 5932 5934 5936 5938 5940 5941 5942 5943 5944 5946 5947 5948 5949 5950 5952 5953 5954
5789 5793 5793 5793 5794 5795 5799 5805 5808 5810 5813 5816 5818 5819 5821 5824 5827 5829 5832 5833 5835 5840 5845 5847 5844 5844 5847 5849 5853 5859 5864 5864 5865 5870 5873 5873 5870 5868 5870 5875 5878 5879 5880 5883 5887 5890 5892 5894 5895 5897 5899 5902 5904 5906 5907 5906 5904 5903 5904 5906 5909 5912 5916 5919 5921 5924 5926 5928 5930 5931 5933 5935 5937 5939 5940 5941 5943 5944 5945 5947 5948 5949 5950 5951 5953 5954
5785 5790 5789 5788 5791 5792 5793 5799 5803 5805 5807 5810 5813 5814 5816 5821 5824 5826 5829 5832 5834 5837 5841 5842 5841 5842 5845 5848 5850 5854 5858 5861 5864 5868 5870 5870 5871 5868 5867 5873 5877 5878 5879 5882 5885 5888 5891 5893 5894 5896 5898 5900 5902 5905 5906 5906 5903 5902 5903 5905 5908 5911 5914 5917 5920 5922 5925 5926 5928 5930 5932 5934 5937 5938 5940 5941 5942 5944 5945 5946 5947 5949 5950 5951 5952 5954
5780 5783 5783 5783 5787 5789 5790 5793 5795 5799 5803 5807 5809 5810 5813 5819 5822 5823 5825 5828 5831 5831 5834 5838 5840 5841 5843 5845 5847 5849 5852 5857 5860 5864 5868 5868 5870 5868 5864 5869 5876 5877 5879 5883 5885 5887 5890 5892 5893 5895 5897 5899 5901 5903 5905 5905 5902 5900 5901 5903 5906 5909 5912 5915 5918 5920 5923 5925 5927 5929 5931 5933 5936 5937 5939 5941 5942 5943 5944 5945 5947 5948 5949 5951 5952 5953
5774 5778 5779 5780 5785 5788 5787 5787 5788 5792 5797 5801 5805 5809 5813 5816 5818 5818 5820 5823 5826 5826 5829 5834 5839 5842 5844 5843 5844 5846 5848 5851 5854 5859 5866 5868 5868 5866 5863 5866 5873 5876 5878 5883 5885 5886 5888 5890 5891 5893 5895 5897 5899 5901 5903 5905 5902 5899 5899 5901 5904 5907 5910 5913 5916 5918 5921 5923 5925 5928 5930 5932 5934 5936 5938 5940 5941 5943 5944 5945 5946 5948 5949 5950 5951 5953
5770 5775 5777 5777 5781 5782 5781 5782 5784 5787 5790 5795 5800 5806 5810 5812 5814 5815 5816 5818 5821 5823 5826 5831 5835 5840 5844 5846 5845 5844 5843 5846 5851 5854 5860 5864 5864 5863 5864 5865 5869 5872 5875 5879 5883 5884 5885 5887 5889 5891 5893 5896 5897 5899 5901 5903 5902 5899 5897 5900 5903 5906 5908 5911 5913 5916 5918 5921 5924 5926 5928 5931 5933 5935 5937 5939 5941 5942 5944 5945 5946 5947 5948 5949 5951 5952
5766 5769 5771 5774 5776 5776 5775 5777 5780 5784 5788 5793 5797 5800 5802 5805 5808 5811 5812 5814 5817 5820 5824 5828 5832 5835 5841 5845 5848 5846 5842 5843 5848 5850 5853 5858 5857 5861 5867 5866 5864 5867 5870 5874 5878 5881 5881 5883 5886 5889 5891 5894 5895 5897 5899 5901 5902 5899 5896 5898 5901 5904 5907 5909 5912 5915 5917 5920 5922 5924 5927 5929 5931 5934 5936 5937 5940 5942 5943 5944 5945 5946 5948 5949 5950 5951
5761 5761 5765 5770 5771 5770 5772 5775 5777 5782 5787 5793 5796 5797 5799 5800 5803 5806 5809 5811 5813 5816 5821 5825 5829 5833 5838 5843 5847 5848 5844 5841 5842 5844 5847 5851 5852 5857 5865 5866 5863 5864 5867 5870 5873 5876 5878 5881 5884 5887 5890 5892 5893 5894 5896 5900 5902 5900 5896 5896 5900 5903 5905 5908 5911 5914 5916 5919 5921 5923 5925 5927 5930 5932 5934 5936 5938 5940 5942 5943 5945 5946 5947 5948 5949 5951
5752 5753 5758 5765 5766 5767 5771 5773 5775 5778 5782 5788 5791 5793 5796 5799 5802 5804 5806 5809 5811 5812 5816 5821 5825 5831 5838 5841 5843 5845 5846 5842 5839 5839 5842 5846 5850 5854 5860 5863 5862 5863 5864 5866 5869 5873 5877 5880 5882 5885 5888 5890 5891 5892 5894 5897 5901 5902 5898 5895 5898 5901 5904 5907 5909 5912 5914 5917 5919 5922 5923 5925 5928 5930 5932 5935 5937 5939 5940 5942 5944 5945 5946 5948 5949 5950
5747 5751 5756 5760 5762 5763 5765 5768 5769 5771 5773 5777 5782 5788 5794 5797 5800 5803 5805 5809 5812 5811 5813 5817 5820 5827 5835 5838 5838 5841 5844 5845 5842 5838 5838 5842 5847 5851 5855 5858 5860 5861 5862 5863 5865 5870 5876 5878 5880 5882 5885 5887 5888 5890 5891 5894 5899 5902 5900 5896 5896 5899 5903 5905 5907 5910 5912 5914 5917 5919 5921 5923 5926 5928 5931 5933 5935 5937 5939 5940 5942 5944 5945 5947 5948 5949
5747 5750 5750 5753 5755 5757 5761 5764 5766 5767 5770 5773 5776 5781 5787 5790 5793 5796 5798 5803 5806 5808 5812 5814 5814 5821 5830 5833 5834 5836 5839 5843 5844 5840 5837 5839 5843 5846 5850 5853 5856 5858 5860 5860 5861 5866 5873 5877 5877 5879 5881 5883 5885 5887 5889 5891 5895 5899 5899 5897 5896 5898 5901 5904 5906 5908 5910 5912 5915 5917 5919 5921 5924 5926 5929 5931 5934 5935 5937 5939 5940 5942 5944 5945 5947 5949
5744 5743 5741 5745 5748 5750 5756 5761 5762 5765 5767 5769 5771 5776 5781 5785 5788 5789 5791 5794 5796 5801 5808 5812 5812 5818 5826 5830 5831 5834 5835 5838 5841 5840 5836 5838 5841 5843 5846 5849 5851 5854 5856 5858 5858 5862 5868 5874 5875 5876 5878 5880 5883 5886 5888 5890 5893 5895 5897 5898 5897 5896 5899 5903 5905 5907 5908 5910 5912 5914 5917 5919 5921 5924 5927 5930 5932 5934 5935 5937 5939 5940 5942 5944 5945 5947
5735 5733 5733 5737 5740 5744 5751 5754 5754 5756 5758 5759 5762 5768 5774 5777 5780 5783 5786 5790 5793 5796 5800 5805 5810 5816 5822 5826 5828 5831 5833 5834 5837 5838 5836 5837 5840 5841 5842 5844 5847 5850 5852 5855 5856 5858 5863 5869 5873 5874 5875 5878 5881 5883 5886 5888 5889 5892 5894 5897 5898 5896 5897 5901 5904 5905 5907 5908 5910 5912 5914 5917 5919 5922 5925 5927 5930 5931 5933 5935 5936 5938 5940 5942 5944 5945
5722 5723 5726 5730 5732 5737 5743 5744 5745 5746 5748 5751 5755 5759 5762 5765 5769 5773 5777 5782 5788 5790 5792 5798 5805 5812 5817 5819 5820 5823 5826 5829 5833 5835 5834 5833 5835 5836 5836 5838 5844 5848 5849 5852 5854 5855 5858 5863 5869 5872 5873 5875 5878 5880 5882 5884 5886 5889 5891 5894 5895 5895 5896 5900 5902 5904 5906 5907 5909 5911 5912 5915 5917 5919 5922 5924 5927 5928 5930 5932 5934 5936 5938 5940 5942 5944
5711 5713 5717 5721 5724 5729 5734 5737 5740 5741 5742 5746 5749 5752 5755 5759 5763 5767 5769 5772 5776 5779 5784 5792 5798 5805 5811 5812 5811 5815 5818 5821 5824 5824 5824 5825 5826 5828 5831 5834 5840 5846 5848 5850 5852 5853 5854 5857 5863 5868 5870 5872 5874 5876 5878 5880 5882 5886 5888 5890 5891 5892 5894 5898 5901 5903 5904 5906 5908 5909 5911 5913 5914 5917 5919 5921 5923 5925 5928 5930 5932 5934 5936 5938 5940 5942
5701 5703 5708 5711 5713 5719 5725 5729 5734 5734 5735 5739 5743 5747 5751 5755 5761 5764 5765 5768 5769 5771 5779 5787 5791 5797 5804 5805 5805 5809 5809 5810 5813 5811 5813 5819 5822 5826 5831 5832 5835 5839 5841 5843 5845 5848 5850 5852 5856 5862 5865 5867 5870 5872 5874 5877 5879 5882 5885 5887 5888 5890 5893 5896 5899 5901 5903 5904 5906 5908 5909 5910 5912 5914 5916 5918 5920 5923 5925 5928 5930 5932 5934 5936 5938 5939
5692 5695 5700 5702 5703 5709 5714 5719 5724 5726 5727 5732 5736 5739 5743 5747 5752 5756 5758 5762 5765 5769 5777 5784 5786 5790 5794 5795 5799 5802 5801 5803 5805 5805 5809 5816 5819 5823 5828 5829 5831 5833 5833 5834 5838 5842 5846 5848 5852 5857 5861 5864 5866 5868 5870 5873 5875 5879 5881 5884 5886 5888 5891 5894 5897 5899 5901 5903 5904 5906 5907 5909 5910 5912 5914 5916 5918 5920 5923 5925 5927 5929 5932 5934 5935 5937
5688 5691 5694 5694 5695 5699 5704 5709 5715 5718 5719 5722 5727 5731 5736 5741 5745 5749 5753 5758 5762 5768 5774 5779 5781 5784 5785 5787 5791 5795 5795 5799 5801 5803 5809 5815 5817 5820 5823 5825 5828 5830 5831 5833 5836 5840 5843 5845 5849 5853 5855 5857 5860 5862 5865 5868 5871 5874 5877 5880 5883 5886 5889 5892 5894 5897 5899 5901 5902 5903 5905 5907 5908 5910 5911 5913 5915 5917 5920 5922 5924 5927 5929 5931 5933 5935
5685 5688 5689 5688 5688 5692 5697 5702 5707 5711 5712 5714 5720 5726 5731 5737 5740 5745 5751 5756 5761 5767 5772 5774 5777 5779 5778 5780 5784 5786 5789 5793 5796 5801 5807 5811 5814 5817 5819 5821 5823 5826 5829 5831 5834 5837 5840 5843 5847 5850 5852 5853 5853 5855 5858 5862 5866 5870 5873 5877 5880 5883 5886 5889 5892 5894 5897 5898 5899 5901 5903 5905 5906 5908 5909 5911 5913 5915 5917 5919 5922 5924 5927 5929 5931 5932
5683 5684 5685 5685 5684 5687 5692 5695 5698 5702 5702 5705 5714 5722 5727 5732 5735 5739 5745 5751 5756 5761 5764 5768 5771 5770 5770 5774 5778 5779 5782 5786 5790 5795 5800 5805 5809 5812 5814 5816 5818 5820 5824 5828 5830 5834 5836 5839 5843 5847 5850 5853 5854 5855 5858 5860 5863 5866 5870 5873 5877 5879 5882 5885 5889 5892 5894 5896 5897 5899 5901 5902 5904 5905 5907 5908 5910 5912 5914 5917 5919 5922 5924 5927 5929 5930
5680 5680 5681 5682 5682 5684 5687 5689 5691 5692 5691 5698 5710 5716 5718 5722 5725 5729 5735 5742 5749 5755 5758 5761 5763 5761 5763 5768 5771 5773 5776 5780 5784 5789 5793 5798 5803 5807 5809 5812 5814 5816 5819 5822 5826 5830 5832 5834 5838 5841 5845 5850 5853 5856 5857 5858 5860 5862 5866 5869 5872 5875 5878 5881 5885 5888 5891 5894 5896 5897 5899 5900 5902 5903 5904 5906 5907 5909 5912 5914 5917 5919 5921 5923 5926 5928
5676 5676 5677 5678 5678 5680 5683 5684 5684 5682 5685 5696 5704 5706 5708 5713 5716 5720 5727 5734 5742 5747 5749 5751 5753 5756 5760 5762 5763 5766 5770 5774 5777 5782 5788 5792 5796 5800 5805 5807 5809 5812 5815 5818 5822 5825 5828 5831 5834 5838 5841 5845 5848 5851 5853 5855 5858 5860 5863 5865 5868 5871 5874 5877 5881 5885 5888 5891 5894 5896 5897 5898 5900 5901 5902 5904 5905 5907 5909 5911 5914 5916 5918 5920 5923 5925
5672 5672 5674 5675 5675 5676 5677 5678 5678 5679 5685 5694 5697 5697 5702 5707 5710 5715 5723 5729 5732 5732 5734 5739 5742 5746 5748 5749 5751 5757 5764 5769 5772 5777 5784 5787 5790 5795 5799 5803 5806 5808 5811 5815 5818 5821 5824 5827 5831 5835 5839 5841 5844 5847 5849 5852 5856 5859 5861 5864 5867 5870 5872 5875 5878 5882 5885 5888 5891 5893 5895 5896 5898 5899 5900 5902 5903 5905 5907 5909 5911 5913 5915 5917 5919 5921
5667 5668 5669 5670 5671 5672 5673 5674 5675 5678 5683 5687 5687 5689 5694 5698 5702 5709 5715 5719 5719 5720 5727 5734 5736 5735 5734 5736 5745 5756 5763 5767 5770 5774 5779 5782 5786 5790 5794 5798 5802 5804 5807 5811 5814 5817 5821 5825 5828 5832 5835 5838 5841 5844 5848 5851 5854 5857 5860 5864 5868 5870 5871 5873 5876 5880 5883 5885 5888 5891 5893 5894 5896 5897 5899 5900 5902 5903 5905 5906 5908 5910 5912 5913 5915 5918
5662 5663 5665 5666 5667 5669 5670 5670 5671 5674 5677 5679 5679 5682 5688 5693 5697 5703 5707 5709 5710 5715 5722 5727 5729 5732 5734 5739 5750 5758 5762 5764 5764 5767 5773 5778 5781 5787 5790 5794 5798 5801 5804 5807 5810 5814 5818 5821 5825 5829 5832 5834 5836 5840 5845 5850 5853 5856 5859 5862 5866 5868 5870 5872 5875 5878 5880 5882 5885 5888 5890 5892 5894 5895 5897 5898 5900 5901 5902 5904 5905 5907 5909 5910 5912 5914
5657 5658 5660 5661 5662 5665 5666 5666 5668 5670 5672 5674 5676 5679 5683 5687 5691 5695 5699 5701 5705 5710 5716 5719 5724 5730 5736 5743 5750 5754 5755 5755 5755 5761 5770 5775 5778 5783 5787 5789 5794 5797 5800 5804 5807 5810 5814 5817 5821 5825 5828 5831 5833 5835 5840 5845 5849 5853 5856 5858 5861 5864 5867 5869 5872 5876 5878 5880 5882 5884 5887 5889 5891 5893 5894 5896 5897 5899 5900 5901 5902 5904 5905 5907 5909 5911
5653 5654 5656 5656 5658 5661 5663 5663 5665 5667 5667 5669 5672 5674 5677 5680 5684 5688 5691 5694 5701 5707 5711 5714 5719 5726 5731 5738 5743 5745 5746 5748 5752 5760 5768 5772 5775 5780 5783 5786 5790 5793 5797 5800 5803 5806 5810 5813 5818 5822 5825 5828 5831 5833 5836 5839 5842 5847 5851 5854 5857 5860 5864 5867 5870 5873 5875 5877 5878 5880 5883 5885 5888 5890 5892 5893 5894 5896 5897 5898 5899 5901 5902 5904 5906 5907
5650 5651 5652 5653 5655 5658 5659 5661 5663 5662 5662 5664 5667 5668 5671 5674 5677 5680 5684 5689 5696 5702 5705 5709 5714 5719 5724 5730 5735 5737 5741 5746 5752 5759 5765 5768 5771 5776 5780 5783 5786 5789 5793 5796 5799 5802 5806 5809 5814 5818 5821 5824 5828 5830 5833 5836 5839 5842 5846 5850 5853 5857 5861 5865 5867 5869 5871 5873 5875 5877 5879 5882 5884 5886 5888 5890 5891 5892 5894 5895 5897 5898 5899 5900 5902 5904
5648 5648 5649 5650 5652 5655 5656 5658 5659 5658 5657 5660 5662 5664 5668 5670 5671 5675 5680 5684 5688 5693 5698 5703 5707 5711 5717 5723 5728 5732 5738 5744 5750 5756 5761 5764 5768 5772 5776 5779 5782 5785 5789 5792 5795 5798 5801 5805 5809 5813 5817 5821 5824 5827 5830 5833 5836 5840 5843 5846 5850 5854 5858 5860 5862 5864 5867 5870 5872 5874 5876 5878 5880 5882 5884 5886 5888 5889 5891 5893 5894 5895 5896 5897 5899 5900
5648 5647 5646 5647 5650 5652 5654 5654 5654 5653 5654 5657 5659 5661 5664 5665 5666 5670 5674 5676 5680 5685 5690 5695 5698 5702 5709 5717 5721 5725 5731 5739 5745 5751 5756 5759 5763 5767 5772 5776 5779 5782 5785 5788 5791 5794 5797 5801 5805 5809 5813 5817 5820 5823 5826 5829 5833 5836 5839 5843 5848 5852 5853 5854 5857 5860 5863 5866 5868 5870 5872 5874 5876 5878 5880 5882 5884 5886 5888 5889 5891 5892 5893 5894 5895 5897
5647 5646 5645 5646 5647 5649 5650 5650 5650 5651 5652 5654 5656 5657 5659 5661 5662 5665 5668 5671 5676 5680 5685 5689 5694 5698 5704 5710 5714 5718 5724 5731 5739 5745 5749 5752 5757 5763 5767 5772 5776 5778 5781 5784 5787 5790 5793 5797 5801 5805 5809 5813 5817 5819 5822 5826 5829 5832 5836 5841 5846 5848 5848 5849 5852 5855 5859 5862 5865 5866 5868 5871 5872 5874 5876 5878 5880 5882 5884 5886 5887 5889 5890 5891 5892 5894
5645 5645 5645 5645 5646 5646 5647 5647 5647 5647 5648 5649 5651 5653 5654 5656 5658 5661 5664 5669 5672 5675 5680 5685 5690 5694 5700 5705 5708 5712 5717 5724 5732 5739 5742 5746 5752 5758 5763 5768 5772 5774 5777 5780 5783 5785 5789 5793 5797 5801 5805 5809 5813 5815 5818 5822 5826 5829 5833 5838 5842 5843 5843 5846 5849 5851 5855 5859 5861 5862 5865 5867 5868 5870 5872 5874 5876 5878 5880 5882 5883 5885 5887 5887 5889 5890
5644 5644 5643 5644 5644 5644 5644 5644 5643 5644 5645 5646 5648 5650 5651 5653 5655 5657 5661 5665 5667 5671 5676 5681 5686 5690 5695 5700 5704 5706 5711 5718 5726 5733 5736 5740 5746 5752 5757 5763 5768 5770 5773 5775 5778 5781 5785 5789 5793 5797 5801 5805 5809 5811 5815 5819 5822 5825 5830 5835 5837 5838 5839 5842 5845 5848 5851 5854 5856 5858 5860 5862 5864 5866 5868 5870 5872 5874 5876 5878 5880 5882 5883 5884 5885 5887
5643 5642 5641 5641 5641 5641 5641 5641 5641 5642 5643 5643 5644 5646 5648 5649 5651 5654 5657 5660 5664 5668 5672 5677 5682 5687 5691 5695 5699 5702 5706 5713 5720 5727 5731 5736 5741 5746 5752 5758 5763 5767 5769 5771 5774 5777 5781 5785 5789 5794 5798 5801 5804 5807 5810 5814 5817 5821 5826 5830 5832 5834 5835 5837 5841 5844 5846 5849 5851 5853 5855 5858 5860 5862 5864 5866 5868 5870 5872 5874 5876 5878 5880 5881 5882 5884
5641 5640 5639 5638 5638 5638 5638 5638 5639 5640 5640 5640 5641 5643 5644 5646 5648 5650 5653 5657 5661 5665 5669 5674 5679 5683 5687 5691 5694 5698 5702 5708 5714 5721 5726 5730 5736 5741 5746 5752 5758 5763 5765 5768 5771 5774 5777 5781 5785 5790 5794 5797 5800 5802 5806 5809 5812 5816 5821 5825 5828 5829 5830 5832 5836 5840 5842 5844 5846 5848 5850 5853 5855 5857 5859 5861 5863 5865 5868 5870 5872 5874 5876 5878 5879 5880
5639 5638 5637 5636 5635 5635 5635 5635 5636 5637 5637 5637 5638 5639 5641 5643 5645 5647 5650 5654 5658 5661 5666 5670 5675 5679 5682 5686 5690 5694 5698 5704 5710 5716 5721 5726 5731 5737 5742 5747 5753 5758 5762 5765 5768 5771 5774 5777 5781 5785 5790 5793 5795 5798 5801 5804 5807 5811 5816 5819 5822 5824 5825 5827 5831 5834 5836 5837 5840 5843 5845 5847 5850 5852 5854 5856 5858 5861 5863 5866 5869 5870 5872 5874 5875 5876
5637 5636 5635 5634 5633 5632 5632 5632 5632 5633 5633 5634 5634 5636 5638 5640 5642 5644 5647 5651 5654 5658 5662 5667 5671 5675 5678 5682 5686 5690 5695 5700 5705 5711 5716 5720 5726 5733 5738 5743 5748 5753 5758 5762 5765 5768 5771 5773 5777 5781 5785 5789 5792 5794 5797 5800 5803 5807 5810 5813 5815 5816 5817 5819 5823 5827 5829 5830 5833 5836 5839 5842 5844 5847 5849 5851 5853 5857 5860 5862 5864 5866 5868 5870 5871 5873
5635 5634 5633 5631 5630 5630 5629 5629 5628 5629 5629 5630 5631 5632 5634 5636 5638 5641 5644 5647 5651 5655 5659 5663 5667 5671 5674 5678 5682 5686 5690 5695 5700 5705 5710 5714 5721 5728 5734 5739 5744 5749 5753 5758 5762 5765 5768 5770 5773 5776 5781 5785 5787 5790 5793 5796 5798 5800 5803 5805 5807 5808 5809 5810 5813 5817 5821 5825 5828 5831 5834 5837 5839 5842 5844 5846 5849 5852 5855 5857 5859 5862 5864 5866 5867 5869